Вернуться в каталог

ONEWEB-0059

АктивенСвязьPO
NORAD 45162·PAYLOAD·🇬🇧 United Kingdom

Запущен Feb 6, 2020 с Baikonur Cosmodrome

Loading…

Ближайшие Пролёты (ближайшие 24 часа)

TLE

СвежийSource: CelesTrak SupGP

Эпоха: Sep 14, 2026, 19:08 UTC

1 45162C 20008AH  26257.79738840  .00002273  00000+0  65193-2 0  2572
2 45162  87.8918  18.4347 0002084 107.4983   1.6939 13.10378780    11

Отслеживайте ONEWEB-0059 в реальном времени с AllMySat

Download on the App Store